Regional Weather Roundup
Issued by NWS

Home | Current Version | Previous Version | Text Only | Print | Product List | Glossary Off
Versions: 1 2 3 4 5 6 7 8 9 10 11 12 13 14 15 16 17 18 19 20 21 22 23 24 25 26 27 28 29 30 31 32 33 34 35 36 37 38 39 40 41 42 43 44 45 46 47 48 49 50

000
ASUS43 KLOT 221003
RWRIL

ILLINOIS REGIONAL WEATHER ROUNDUP
NATIONAL WEATHER SERVICE CHICAGO/ROMEOVILLE IL
400 AM CST MON JAN 22 2018

NOTE: "FAIR" INDICATES FEW OR NO CLOUDS BELOW 12,000 FEET WITH NO
SIGNIFICANT WEATHER AND/OR OBSTRUCTIONS TO VISIBILITY.

* THESE STATIONS ARE NOT UNDER NWS QUALITY CONTROL. THEY ALSO MAY NOT
  REPORT WEATHER SUCH AS PRECIPITATION OR FOG.

ILZ001-002-007-009-015-016-024-221100-
NORTHWEST ILLINOIS

CITY           SKY/WX    TMP DP  RH WIND       PRES   REMARKS
MOLINE         CLOUDY    51  50  96 NE5       29.57S
STERLING*        N/A    N/A N/A N/A MISG        N/A
SAVANNA*       DRIZZLE   39  39 100 NE9       29.63F WCI  33
$$

ILZ003-004-008-010-011-017-018-221100-
NORTH CENTRAL ILLINOIS

CITY           SKY/WX    TMP DP  RH WIND       PRES   REMARKS
ROCKFORD       LGT RAIN  40  40 100 E9        29.67F VSB 1/2
FREEPORT*      RAIN      37  37 100 NE8       29.67F WCI  31
ROCHELLE*      RAIN      45  45 100 E8        29.65F VSB 1/2
DE KALB*       DRZL/FOG  45  44  99 E9        29.66F VSB 1/4
PERU*          RAIN      48  48  99 SE12      29.62F
$$

ILZ005-006-012>014-019>023-221100-
NORTHEAST ILLINOIS

CITY           SKY/WX    TMP DP  RH WIND       PRES   REMARKS
CHICAGO-OHARE  RAIN      47  46  97 NE7       29.68F FOG
CHICAGO-MIDWAY CLOUDY    47  47 100 SE8       29.69F FOG
AURORA         RAIN      46  46 100 SE8       29.67F VSB 1/4
LANSING*       RAIN      48  48 100 SE6       29.71F
JOLIET*        RAIN      48  48 100 SE3       29.68F
WAUKEGAN       FOG       39  39 100 NE6       29.72F VSB 1/4 WCI  35
DUPAGE AIRPORT CLOUDY    47  47 100 E6        29.67F FOG
KANKAKEE*      CLOUDY   N/A N/A N/A SE5       29.69F FOG
WHEELING       FOG       39  39 100 CALM      29.72F VSB 1/2
MORRIS*        RAIN      48  48  99 SE9       29.66F
NORTHERLY ISL    N/A     38  37  97 N1          N/A
$$

LMZ740>746-221100-
SOUTHERN LAKE MICHIGAN

STATION/POSITION SKY/WX   TEMP    WIND        PRES    VSBY  WAVE
                          AIR SEA DIR/SP/G                  HT/PER
                          (F)     (DEG/KT/KT) (MB)    (MI)  (FT/S)
HARRISON CRIB              42     110/ 16/ 17   N/A
BURNHAM HARBOR             39      10/  2/  2   N/A
CALUMET HARBOR             41      90/  5/  5 1006.1F
BURNS HARBOR               50     160/ 13/ 21 1007.5F
MICHIGAN CITY              49     140/ 12/ 14   N/A
$$

ILZ025>027-034>036-040-047-049-050-058-095>099-221100-
WEST-CENTRAL ILLINOIS

CITY           SKY/WX    TMP DP  RH WIND       PRES   REMARKS
QUINCY         CLOUDY    53  51  93 S9        29.55F
GALESBURG*     RAIN      52  52 100 SE9       29.57F
JACKSONVILLE*  RAIN      53  52  97 SW7       29.60R
PITTSFIELD*    RAIN      53  53  99 E7        29.58F VSB 1
$$

ILZ028>032-037-038-041>044-048-051>054-059>061-221100-
CENTRAL ILLINOIS

CITY           SKY/WX    TMP DP  RH WIND       PRES   REMARKS
BLOOMINGTON    CLOUDY    49  47  93 SE15      29.62F
DECATUR        MOCLDY    53  49  86 S21G28    29.62F
PEORIA         HVY RAIN  53  53 100 S9        29.59F FOG
LACON*         RAIN      51  51 100 S9        29.61F
LINCOLN*       TSTM      52  51  97 S14G23    29.60F
SPRINGFIELD    LGT RAIN  54  52  93 S21G32    29.59F
TAYLORVILLE    RAIN      52  50  93 S20       29.65R
$$

ILZ033-039-045-046-055>057-062-063-221100-
EAST-CENTRAL ILLINOIS

CITY           SKY/WX    TMP DP  RH WIND       PRES   REMARKS
CHAMPAIGN      FAIR      51  47  86 SE18G26   29.65F
DANVILLE*      MOCLDY    53  46  79 S18G26    29.68F
RANTOUL*       MOCLDY    49  48  95 S13       29.67F
MATTOON        FAIR      50  45  83 S14       29.65F
$$

ILZ079-100>102-221100-
SOUTHWEST ILLINOIS

CITY           SKY/WX    TMP DP  RH WIND       PRES   REMARKS
ALTON          RAIN      53  53 100 S12       29.65F
BELLEVILLE     HVY RAIN  55  52  88 SW13G21   29.68R FOG
CAHOKIA*       RAIN      55  53  93 S9        29.66S
SPARTA*        CLOUDY    55  54  97 SW13G20   29.70R
$$

ILZ064>066-069>071-074>076-080>082-084>086-088>090-092>094-221100-
SOUTH-CENTRAL ILLINOIS

CITY           SKY/WX    TMP DP  RH WIND       PRES   REMARKS
CARBONDALE     LGT RAIN  58  48  69 S18       29.65F
CAIRO*         CLOUDY    58  47  64 SE23G30   29.68F
EFFINGHAM*     FAIR      55  47  76 SE13G24   29.68F
MARION         MOCLDY    58  45  61 SE18G24   29.67F
MT. VERNON     FAIR      57  47  69 S15G21    29.66F
CENTRALIA*     FAIR      57  49  74 S18G25    29.63F
SALEM*         FAIR      59  47  64 SE13G24   29.64F
METROPOLIS*    MOCLDY    60  46  60 S12G23    29.72F
$$

ILZ067-068-072-073-078-083-087-091-221100-
SOUTHEAST ILLINOIS

CITY           SKY/WX    TMP DP  RH WIND       PRES   REMARKS
LAWRENCEVILLE  FAIR      51  44  77 S16       29.76F
FLORA*         FAIR      54  46  75 S17       29.69F
FAIRFIELD*     FAIR      55  46  72 SE13G20   29.69F
HARRISBURG*    FAIR      57  47  68 S20G25    29.71F
ROBINSON*      FAIR      53  45  74 S20G25    29.74F
CARMI*         FAIR      50  44  80 SE15      29.74F
$$

ABBREVIATIONS USED IN REMARKS
   TC - TEMPERATURE IN CELSIUS
  WCI - WIND CHILL INDEX
   HX - HEAT INDEX
  VSB - VISIBILITY
$$





USA.gov is the U.S. government's official web portal to all federal, state and local government web resources and services.